DW1174 Weather Reports


Display with metric or nautical units.
time (UTC)temp
F
wind
direction
speed
MPH
gust
MPH
rain 1hr
in
rain 24hr
in
rain mn
in
humidity
%
barometer
mb
20260902120254 76 256 0.0 0.0 0.00 0.00 0.00 94 1014.4
20260902115520 76 256 0.0 0.0 0.00 0.00 0.00 95 1014.3
20260902115006 76 256 0.0 0.0 0.00 0.00 0.00 95 1014.4
20260902114947 76 256 0.0 0.0 0.00 0.00 0.00 95 1014.4
20260902114223 76 256 0.0 0.0 0.00 0.00 0.00 95 1014.1
20260902113453 75 256 0.0 0.0 0.00 0.00 0.00 95 1014.1
20260902113212 75 256 0.0 0.0 0.00 0.00 0.00 95 1013.9
20260902112443 75 256 0.0 0.0 0.00 0.00 0.00 96 1013.7
20260902111945 75 256 1.0 3.0 0.00 0.00 0.00 96 1013.6
20260902111428 75 256 2.0 4.0 0.00 0.00 0.00 96 1013.4
20260902110923 75 256 1.0 4.0 0.00 0.00 0.00 96 1013.3
20260902110416 75 259 0.0 1.0 0.00 0.00 0.00 96 1013.4
20260902105916 75 259 1.0 3.0 0.00 0.00 0.00 96 1013.5
20260902105624 74 259 2.0 4.0 0.00 0.00 0.00 96 1013.5
20260902104900 74 259 3.0 4.0 0.00 0.00 0.00 96 1013.4
20260902104403 74 259 1.0 4.0 0.00 0.00 0.00 96 1013.5
20260902103845 74 259 0.0 0.0 0.00 0.00 0.00 96 1013.4
20260902103550 74 261 0.0 3.0 0.00 0.00 0.00 96 1013.4
20260902102820 74 261 0.0 3.0 0.00 0.00 0.00 95 1013.5
20260902102317 74 261 0.0 0.0 0.00 0.00 0.00 95 1013.5
20260902102255 74 261 0.0 0.0 0.00 0.00 0.00 95 1013.4
20260902101256 74 262 0.0 0.0 0.00 0.00 0.00 95 1013.3
20260902100755 74 262 0.0 0.0 0.00 0.00 0.00 95 1013.3
20260902100507 74 262 0.0 0.0 0.00 0.00 0.00 95 1013.3
20260902095721 74 262 1.0 3.0 0.00 0.00 0.00 95 1013.4
20260902095204 74 262 2.0 4.0 0.00 0.00 0.00 95 1013.3
20260902094704 74 262 1.0 4.0 0.00 0.00 0.00 95 1013.4
20260902094158 74 262 0.0 0.0 0.00 0.00 0.00 95 1013.4
20260902093650 74 262 0.0 0.0 0.00 0.00 0.00 94 1013.5
20260902093143 74 262 0.0 0.0 0.00 0.00 0.00 94 1013.5
20260902092639 74 262 0.0 0.0 0.00 0.00 0.00 94 1013.6
20260902092144 74 262 0.0 0.0 0.00 0.00 0.00 93 1013.6
20260902091832 74 262 0.0 0.0 0.00 0.00 0.00 93 1013.6
20260902091106 74 262 1.0 3.0 0.00 0.00 0.00 93 1013.6
20260902090543 74 263 2.0 4.0 0.00 0.00 0.00 93 1013.7
20260902090027 74 262 3.0 4.0 0.00 0.00 0.00 93 1013.6
20260902085513 74 264 3.0 4.0 0.00 0.00 0.00 92 1013.8
20260902085008 74 264 2.0 4.0 0.00 0.00 0.00 92 1013.7
20260902084436 74 264 1.0 4.0 0.00 0.00 0.00 93 1013.7
20260902083929 74 264 0.0 0.0 0.00 0.00 0.00 93 1013.8
20260902083426 74 264 0.0 3.0 0.00 0.00 0.00 93 1013.9
20260902083142 74 264 2.0 3.0 0.00 0.00 0.00 93 1013.9
20260902082416 74 264 3.0 3.0 0.00 0.00 0.00 93 1013.8
20260902081847 74 264 2.0 3.0 0.00 0.00 0.00 93 1013.8
20260902081320 74 264 1.0 3.0 0.00 0.00 0.00 93 1013.7
20260902081039 74 264 0.0 1.0 0.00 0.00 0.00 93 1013.7
20260902080241 74 264 0.0 0.0 0.00 0.00 0.00 93 1013.7
20260902075742 74 264 0.0 0.0 0.00 0.00 0.00 93 1013.7
20260902075220 73 264 0.0 0.0 0.00 0.00 0.00 93 1013.7
20260902074714 73 264 0.0 0.0 0.00 0.00 0.00 93 1013.7
20260902074424 73 264 0.0 0.0 0.00 0.00 0.00 93 1013.8
20260902073645 73 264 0.0 0.0 0.00 0.00 0.00 93 1013.8
20260902073140 73 264 0.0 0.0 0.00 0.00 0.00 93 1013.8
20260902072615 73 264 0.0 0.0 0.00 0.00 0.00 93 1013.8
20260902072041 73 264 0.0 0.0 0.00 0.00 0.00 92 1013.8
20260902071538 73 264 0.0 0.0 0.00 0.00 0.00 92 1013.8
20260902071013 74 264 0.0 0.0 0.00 0.00 0.00 92 1013.9
20260902070504 74 264 0.0 0.0 0.00 0.00 0.00 92 1013.8
20260902070002 74 264 0.0 0.0 0.00 0.00 0.00 92 1013.9
20260902065502 74 264 0.0 0.0 0.00 0.00 0.00 92 1013.9
20260902064948 74 264 0.0 0.0 0.00 0.00 0.00 92 1013.9
20260902064930 74 264 0.0 0.0 0.00 0.00 0.00 91 1013.8
20260902063935 74 264 0.0 0.0 0.00 0.00 0.00 91 1013.9
20260902063429 74 264 0.0 0.0 0.00 0.00 0.00 91 1014.1
20260902063145 74 264 0.0 0.0 0.00 0.00 0.00 91 1014.1
20260902062406 74 264 0.0 0.0 0.00 0.00 0.00 91 1014.3
20260902062107 74 264 0.0 0.0 0.00 0.00 0.00 91 1014.3
20260902061333 74 264 0.0 0.0 0.00 0.00 0.00 91 1014.3
20260902060814 74 264 0.0 0.0 0.00 0.00 0.00 91 1014.4
20260902060508 74 264 0.0 0.0 0.00 0.00 0.00 91 1014.4
20260902055738 74 264 0.0 0.0 0.00 0.00 0.00 91 1014.3
20260902055508 74 264 0.0 0.0 0.00 0.00 0.00 91 1014.3
20260902054706 74 264 0.0 0.0 0.00 0.00 0.00 91 1014.3
20260902054205 74 264 0.0 0.0 0.00 0.00 0.00 91 1014.1
20260902053645 73 264 0.0 0.0 0.00 0.00 0.00 92 1014.3
20260902053135 73 264 0.0 0.0 0.00 0.00 0.00 91 1014.0
20260902052632 73 264 0.0 0.0 0.00 0.00 0.00 91 1014.1
20260902052128 74 264 0.0 0.0 0.00 0.00 0.00 91 1014.0
20260902051615 74 264 0.0 0.0 0.00 0.00 0.00 91 1014.0
20260902051109 74 264 0.0 0.0 0.00 0.00 0.00 90 1014.0
20260902050549 74 264 0.0 0.0 0.00 0.00 0.00 90 1014.0
20260902050037 74 264 0.0 0.0 0.00 0.00 0.00 89 1014.0
20260902045534 74 264 0.0 0.0 0.00 0.00 0.00 89 1014.0
20260902045004 75 264 0.0 0.0 0.00 0.00 0.00 88 1014.0
20260902044441 75 264 0.0 0.0 0.00 0.00 0.00 87 1014.0
20260902044140 75 264 0.0 0.0 0.00 0.00 0.00 87 1014.1
20260902043403 76 264 0.0 0.0 0.00 0.00 0.00 86 1014.1
20260902043128 76 264 0.0 0.0 0.00 0.00 0.00 85 1014.0
20260902042402 76 264 0.0 0.0 0.00 0.00 0.00 84 1014.3
20260902041856 77 264 0.0 0.0 0.00 0.00 0.00 84 1014.3
20260902041358 77 264 0.0 0.0 0.00 0.00 0.00 83 1014.3
20260902040833 77 264 0.0 0.0 0.00 0.00 0.00 84 1014.3
20260902040316 77 264 0.0 2.0 0.00 0.00 0.00 83 1014.3
20260902035813 77 264 0.0 2.0 0.00 0.00 0.00 83 1014.3
20260902035305 77 257 0.0 0.0 0.00 0.00 0.00 82 1014.3
20260902034757 77 257 0.0 0.0 0.00 0.00 0.00 81 1014.1
20260902034243 77 257 0.0 0.0 0.00 0.00 0.00 80 1014.1
20260902033733 77 257 0.0 0.0 0.00 0.00 0.00 79 1014.1
20260902033233 78 257 0.0 0.0 0.00 0.01 0.00 78 1014.0
20260902032715 78 257 0.0 0.0 0.00 0.01 0.00 77 1014.1
20260902032202 78 257 0.0 0.0 0.00 0.01 0.00 77 1014.3
20260902031655 78 257 0.0 0.0 0.00 0.01 0.00 77 1014.1
20260902031130 79 257 0.0 0.0 0.00 0.01 0.00 76 1014.3
20260902030626 79 257 0.0 0.0 0.00 0.01 0.00 75 1014.0
20260902030112 79 254 0.0 0.0 0.00 0.01 0.00 75 1013.9
20260902025559 79 254 0.0 0.0 0.00 0.01 0.00 74 1014.0
20260902025059 79 254 0.0 0.0 0.00 0.01 0.00 74 1013.9
20260902024755 79 254 0.0 0.0 0.00 0.01 0.00 74 1013.8
20260902024001 79 254 0.0 0.0 0.00 0.01 0.00 74 1013.8
20260902023457 79 254 0.0 0.0 0.00 0.01 0.00 74 1013.8
20260902022954 79 254 0.0 0.0 0.00 0.01 0.00 74 1013.8
20260902022444 79 254 0.0 0.0 0.00 0.01 0.00 74 1013.8
20260902021933 79 254 0.0 0.0 0.00 0.01 0.00 73 1013.8
20260902021437 79 254 0.0 0.0 0.00 0.01 0.00 73 1013.8
20260902020929 79 254 0.0 0.0 0.00 0.01 0.00 73 1013.8
20260902020427 80 255 0.0 0.0 0.00 0.01 0.00 73 1013.7
20260902015905 80 261 0.0 0.0 0.00 0.01 0.00 73 1013.7
20260902015405 80 261 0.0 0.0 0.00 0.01 0.00 73 1013.7
20260902014909 80 262 0.0 0.0 0.00 0.01 0.00 73 1013.7
20260902014406 80 262 0.0 0.0 0.00 0.01 0.00 72 1013.7
20260902014126 80 262 0.0 2.0 0.00 0.01 0.00 72 1013.7
20260902013357 80 262 0.0 2.0 0.00 0.01 0.00 72 1013.7
20260902013110 80 261 0.0 3.0 0.00 0.01 0.00 72 1013.6
20260902012835 81 247 0.0 3.0 0.00 0.01 0.00 73 1013.7
20260902012112 81 263 0.0 5.0 0.00 0.01 0.00 73 1013.7
20260902011555 81 148 0.0 5.0 0.00 0.01 0.00 73 1013.8
20260902011049 81 146 0.0 4.0 0.00 0.01 0.00 74 1013.7
20260902010317 81 145 1.0 5.0 0.00 0.01 0.00 74 1013.5
20260902005759 81 141 0.0 5.0 0.00 0.01 0.00 74 1013.5
20260902005246 81 121 0.0 4.0 0.00 0.01 0.00 74 1013.5
20260902004748 81 189 0.0 0.0 0.00 0.01 0.00 74 1013.4
20260902004240 81 189 0.0 0.0 0.00 0.01 0.00 74 1013.3
20260902003737 81 189 0.0 0.0 0.00 0.01 0.00 74 1013.3
20260902003225 82 189 0.0 0.0 0.00 0.01 0.00 73 1013.3
20260902002723 82 189 0.0 0.0 0.00 0.01 0.00 73 1013.2
20260902002220 82 186 0.0 0.0 0.00 0.01 0.00 73 1013.2
20260902001656 82 190 0.0 0.0 0.00 0.01 0.00 72 1013.3
20260902001426 82 190 0.0 0.0 0.00 0.01 0.00 72 1013.2
20260902000844 82 190 0.0 3.0 0.00 0.01 0.00 72 1013.4
20260902000315 83 188 0.0 3.0 0.00 0.01 0.00 71 1013.3
20260901235535 83 180 0.0 0.0 0.00 0.01 0.00 71 1013.3
20260901235024 83 180 0.0 0.0 0.00 0.01 0.00 72 1013.4
20260901234525 83 175 0.0 3.0 0.00 0.01 0.00 71 1013.5
20260901234007 83 177 0.0 3.0 0.00 0.01 0.00 72 1013.8
20260901233733 83 178 0.0 6.0 0.00 0.01 0.00 72 1013.8
20260901232959 83 176 1.0 6.0 0.00 0.01 0.00 73 1013.8
20260901232710 84 160 1.0 5.0 0.00 0.01 0.00 74 1013.8
20260901231951 84 279 1.0 5.0 0.00 0.01 0.00 75 1013.9
20260901231427 84 246 0.0 5.0 0.00 0.01 0.00 76 1013.9
20260901230923 84 316 0.0 4.0 0.00 0.01 0.00 76 1013.9
20260901230407 84 240 1.0 4.0 0.00 0.01 0.00 76 1014.0
20260901225903 85 42 0.0 2.0 0.00 0.01 0.00 76 1014.0
20260901225353 85 336 0.0 2.0 0.00 0.01 0.00 76 1014.0
20260901224833 85 232 0.0 0.0 0.00 0.01 0.00 76 1014.0
20260901224320 85 232 0.0 2.0 0.00 0.01 0.00 76 1014.0
20260901223819 85 232 0.0 4.0 0.00 0.01 0.00 75 1014.0
20260901223319 85 150 0.0 4.0 0.00 0.01 0.00 74 1014.1
20260901222759 86 242 0.0 1.0 0.00 0.01 0.00 74 1014.0
20260901222235 86 177 0.0 0.0 0.00 0.01 0.00 73 1014.1
20260901221723 86 177 0.0 3.0 0.00 0.01 0.00 73 1014.1
20260901221215 86 177 0.0 3.0 0.00 0.01 0.00 73 1014.0
20260901220935 86 178 0.0 3.0 0.00 0.01 0.00 72 1014.1
20260901220156 86 178 0.0 4.0 0.00 0.01 0.00 71 1014.3
20260901215636 87 172 0.0 2.0 0.00 0.01 0.00 71 1014.3
20260901215132 87 171 0.0 2.0 0.00 0.01 0.00 70 1014.3
20260901214623 87 196 1.0 6.0 0.00 0.01 0.00 69 1014.3
20260901214103 87 104 2.0 7.0 0.00 0.01 0.00 69 1014.3
20260901213549 88 164 1.0 7.0 0.00 0.01 0.00 68 1014.3
20260901213050 88 134 0.0 5.0 0.00 0.01 0.00 70 1014.1
20260901212541 88 203 0.0 2.0 0.00 0.01 0.00 70 1014.1
20260901212025 88 203 0.0 2.0 0.00 0.01 0.00 72 1014.3
20260901211521 88 203 0.0 1.0 0.00 0.01 0.00 71 1014.3
20260901210951 88 176 0.0 0.0 0.00 0.01 0.00 73 1014.3
20260901210450 88 176 0.0 0.0 0.00 0.01 0.00 72 1014.3
20260901205943 88 175 0.0 2.0 0.00 0.01 0.00 72 1014.4
20260901205446 88 175 0.0 7.0 0.00 0.01 0.00 71 1014.4
20260901204922 88 242 0.0 7.0 0.00 0.01 0.00 70 1014.4
20260901204420 89 196 0.0 3.0 0.00 0.01 0.00 70 1014.3
20260901204112 89 197 0.0 5.0 0.00 0.01 0.00 68 1014.4
20260901203613 90 317 0.0 5.0 0.00 0.01 0.00 67 1014.5
20260901202841 90 163 0.0 3.0 0.00 0.01 0.00 68 1014.4
20260901202317 90 185 1.0 3.0 0.00 0.01 0.00 68 1014.4
20260901201808 90 346 1.0 6.0 0.00 0.01 0.00 66 1014.3
20260901201303 90 346 0.0 6.0 0.00 0.01 0.00 68 1014.3
20260901200759 90 346 0.0 1.0 0.00 0.01 0.00 68 1014.3
20260901200511 90 345 0.0 3.0 0.00 0.01 0.00 70 1014.3
20260901195748 89 343 0.0 3.0 0.00 0.01 0.00 69 1013.9
20260901195244 89 12 0.0 2.0 0.00 0.01 0.00 73 1014.0
20260901194739 89 12 0.0 3.0 0.00 0.01 0.00 75 1014.0
20260901194240 89 12 1.0 3.0 0.00 0.01 0.00 75 1014.0
20260901193726 89 12 0.0 3.0 0.00 0.01 0.00 74 1013.9
20260901193223 89 296 0.0 0.0 0.00 0.01 0.00 74 1014.0
20260901192719 89 298 0.0 0.0 0.00 0.01 0.00 74 1013.9
20260901192216 89 298 0.0 1.0 0.00 0.01 0.00 73 1014.0
20260901191712 89 298 0.0 1.0 0.00 0.01 0.00 73 1014.1
20260901191207 89 298 0.0 1.0 0.00 0.01 0.00 73 1014.1
20260901190710 90 298 0.0 3.0 0.00 0.01 0.00 71 1014.1
20260901190155 90 292 0.0 3.0 0.00 0.01 0.00 70 1014.3
20260901185656 89 292 0.0 3.0 0.00 0.01 0.00 72 1014.4
20260901185411 89 292 0.0 3.0 0.00 0.01 0.00 73 1014.4
20260901184645 88 293 0.0 2.0 0.00 0.01 0.00 74 1014.4
20260901184627 88 293 0.0 1.0 0.00 0.01 0.00 74 1014.5
20260901183631 87 318 0.0 2.0 0.00 0.01 0.00 75 1014.3
20260901183340 87 318 0.0 2.0 0.00 0.01 0.00 74 1014.3
20260901182552 88 318 0.0 1.0 0.00 0.01 0.00 73 1014.4
20260901182049 88 318 0.0 1.0 0.00 0.01 0.00 73 1014.5
20260901181534 88 317 0.0 3.0 0.00 0.01 0.00 73 1014.5
20260901181037 88 318 0.0 3.0 0.00 0.01 0.00 73 1014.6
20260901180532 88 319 0.0 0.0 0.00 0.01 0.00 72 1014.5
20260901180027 89 319 0.0 2.0 0.00 0.01 0.00 71 1014.7
20260901175524 89 319 0.0 2.0 0.00 0.01 0.00 71 1014.7
20260901175014 88 319 0.0 3.0 0.00 0.01 0.00 71 1014.7
20260901174510 88 329 0.0 6.0 0.00 0.01 0.00 71 1014.7
20260901174000 88 339 0.0 6.0 0.00 0.01 0.00 70 1014.7
20260901173459 89 246 1.0 3.0 0.00 0.01 0.00 70 1014.7
20260901172952 88 248 1.0 5.0 0.00 0.01 0.00 70 1014.7
20260901172448 88 259 0.0 5.0 0.00 0.01 0.00 71 1014.8
20260901172201 88 260 0.0 4.0 0.00 0.01 0.00 71 1014.7
20260901171444 87 153 1.0 4.0 0.00 0.01 0.00 72 1014.9
20260901171140 87 153 1.0 4.0 0.00 0.01 0.00 71 1014.9
20260901170411 87 133 1.0 4.0 0.00 0.01 0.00 72 1014.9
20260901165905 87 130 1.0 4.0 0.00 0.01 0.00 72 1014.9
20260901165403 86 120 1.0 5.0 0.00 0.01 0.00 72 1015.0
20260901165336 86 105 1.0 7.0 0.00 0.01 0.00 73 1015.0
20260901164838 86 20 1.0 7.0 0.00 0.01 0.00 73 1015.2
20260901163841 86 265 1.0 3.0 0.00 0.01 0.00 73 1015.1
20260901163338 86 288 1.0 6.0 0.00 0.01 0.00 73 1015.1
20260901162829 86 284 0.0 6.0 0.00 0.01 0.00 74 1015.1
20260901162328 85 175 1.0 3.0 0.00 0.01 0.00 74 1015.0
20260901161811 85 185 1.0 4.0 0.00 0.01 0.00 75 1015.0
20260901161244 85 185 1.0 9.0 0.00 0.01 0.00 74 1015.1
20260901160732 85 199 2.0 9.0 0.00 0.01 0.00 74 1015.1
20260901160221 85 50 1.0 7.0 0.00 0.01 0.00 73 1015.1
20260901155945 85 151 1.0 6.0 0.00 0.01 0.00 75 1015.0
20260901155212 84 77 2.0 9.0 0.00 0.01 0.00 75 1015.0
20260901154714 84 62 2.0 9.0 0.00 0.01 0.00 75 1015.1
20260901154210 84 95 1.0 6.0 0.00 0.01 0.00 76 1015.1
20260901153714 84 14 1.0 4.0 0.00 0.01 0.00 76 1015.0
20260901153207 83 218 1.0 5.0 0.00 0.01 0.00 75 1014.9
20260901152707 83 180 1.0 4.0 0.00 0.01 0.00 77 1014.9
20260901152206 83 319 1.0 9.0 0.00 0.01 0.00 76 1014.9
20260901151700 83 9 1.0 9.0 0.00 0.01 0.00 75 1014.9
20260901151148 83 217 1.0 5.0 0.00 0.01 0.00 75 1015.0
20260901150637 83 309 1.0 5.0 0.00 0.01 0.00 76 1015.1
20260901150107 83 254 1.0 3.0 0.00 0.01 0.00 75 1015.3
20260901145600 83 282 1.0 5.0 0.00 0.01 0.00 75 1015.1
20260901145047 83 283 1.0 5.0 0.00 0.01 0.00 76 1015.1
20260901144545 83 12 1.0 6.0 0.00 0.01 0.00 77 1015.0
20260901144040 82 185 1.0 6.0 0.00 0.01 0.00 77 1015.1
20260901144035 82 351 1.0 5.0 0.00 0.01 0.00 79 1014.8
20260901143259 82 351 1.0 5.0 0.00 0.01 0.00 78 1014.6
20260901142537 82 292 0.0 4.0 0.00 0.01 0.00 79 1014.6
20260901142448 82 212 1.0 4.0 0.00 0.01 0.00 79 1014.5
20260901141508 81 212 1.0 4.0 0.00 0.01 0.00 80 1014.6
20260901141007 81 230 1.0 4.0 0.00 0.01 0.00 80 1014.6
20260901140451 80 159 0.0 6.0 0.00 0.01 0.00 82 1014.3
20260901135939 80 332 0.0 1.0 0.00 0.01 0.00 81 1014.4
20260901135632 80 269 0.0 4.0 0.00 0.01 0.00 82 1014.1
20260901134909 80 300 0.0 5.0 0.00 0.01 0.00 82 1014.3
20260901134409 80 254 1.0 5.0 0.00 0.01 0.00 82 1014.1
20260901133842 80 250 0.0 4.0 0.00 0.01 0.00 82 1014.1
20260901133342 80 240 0.0 4.0 0.00 0.01 0.00 83 1014.1
20260901132841 79 245 0.0 3.0 0.00 0.01 0.00 83 1014.4
20260901132338 79 246 0.0 0.0 0.00 0.01 0.00 84 1014.3
20260901132056 79 246 0.0 0.0 0.00 0.01 0.00 84 1014.3
20260901131310 79 246 0.0 3.0 0.00 0.01 0.00 84 1014.3
20260901130803 79 242 0.0 3.0 0.00 0.01 0.00 84 1014.6
20260901130253 79 240 0.0 0.0 0.00 0.01 0.00 85 1014.6
20260901125737 78 240 0.0 0.0 0.00 0.01 0.00 85 1014.7
20260901125233 78 240 0.0 0.0 0.00 0.01 0.00 85 1014.7
20260901124730 78 239 0.0 0.0 0.00 0.01 0.00 85 1014.7
20260901124210 78 239 0.0 2.0 0.00 0.01 0.00 85 1014.8
20260901123933 78 239 0.0 2.0 0.00 0.01 0.00 85 1014.8
20260901123422 78 238 0.0 0.0 0.00 0.01 0.00 85 1014.8
20260901122857 78 238 0.0 0.0 0.00 0.01 0.00 84 1014.7
20260901122339 78 238 0.0 0.0 0.00 0.01 0.00 84 1014.7
20260901121614 78 238 0.0 3.0 0.00 0.01 0.00 85 1014.6
20260901121102 78 229 0.0 5.0 0.00 0.01 0.00 85 1014.5
20260901120602 77 238 0.0 5.0 0.00 0.01 0.00 85 1014.4